Regional Weather Roundup
Issued by NWS

Home | Current Version | Previous Version | Text Only | Print | Product List | Glossary On
Versions: 1 2 3 4 5 6 7 8 9 10 11 12 13 14 15 16 17 18 19 20 21 22 23 24 25 26 27 28 29 30 31 32 33 34 35 36 37 38 39 40 41 42 43 44 45 46 47 48 49 50
000
ASUS43 KDTX 290410
RWRMI
MICHIGAN HOURLY REGIONAL WEATHER ROUNDUP
NATIONAL WEATHER SERVICE DETROIT/PONTIAC MI
1100 PM EST SUN DEC 28 2014

NOTE: "FAIR" INDICATES FEW OR NO CLOUDS BELOW 12,000 FEET WITH NO
SIGNIFICANT WEATHER AND/OR OBSTRUCTION TO VISIBILITY.

MIZ047>049-052>055-059>063-066>070-074>076-081>083-290500-
SOUTHEAST LOWER MICHIGAN

CITY           SKY/WX    TMP DP  RH WIND       PRES   REMARKS
ADRIAN         CLEAR     27  21  78 NW3       30.21R
ALMA           CLOUDY    27  18  67 NW7       30.21R
ANN ARBOR      CLEAR     27  20  75 NW7       30.19R
BAD AXE        CLOUDY    29  19  64 NW10      30.16R
DETROIT CITY   CLEAR     31  21  66 NW6       30.18R
DETROIT        CLEAR     27  20  75 W6        30.19R
FLINT          CLOUDY    31  22  69 NW10      30.19R
GROSSE ILE     CLEAR     28  23  80 CALM      30.18R
HILLSDALE      CLEAR     26  22  84 NW9       30.17S
HOWELL         CLEAR     25  21  85 W6        30.18R

CITY           SKY/WX    TMP DP  RH WIND       PRES   REMARKS
JACKSON        CLEAR     25  19  78 W5        30.19R
LAMBERTVILLE   CLEAR     30  25  80 CALM      30.21R
LANSING        CLOUDY    28  20  71 NW9       30.21R
LAPEER         NOT AVBL
MASON          CLOUDY    28  20  72 NW9       30.20R
MONROE         CLEAR     27  25  93 CALM      30.18R
MT. CLEMENS    CLEAR     28  21  77 NW7       30.16R
PONTIAC        PTCLDY    26  20  77 W7        30.16R
PORT HOPE        N/A     30  16  56 NW10G17   30.14R
PORT HURON     CLEAR     27  23  86 CALM      30.17R
TRI CITIES     CLOUDY    30  18  60 W8        30.20R
YPSILANTI      CLEAR     29  20  69 W6        30.19R
$$
MIZ043>046-050>051-056>058-064>065-071>073-077>080-290500-
SOUTHWEST LOWER MICHIGAN

CITY           SKY/WX    TMP DP  RH WIND       PRES   REMARKS
BATTLE CREEK   CLOUDY    30  20  66 NW3       30.20R
BENTON HARBOR  MOCLDY    27  23  85 CALM      30.22S
BIG RAPIDS     CLOUDY    27  18  70 NW5       30.18R
COLDWATER      CLEAR     26  21  82 NW3       30.19F
HOLLAND        CLOUDY    33  20  58 N3        30.22S
GRAND RAPIDS   CLOUDY    30  19  63 NW7       30.21R
KALAMAZOO      CLOUDY    30  21  69 W3        30.21R
MARSHALL       CLOUDY    26  21  83 CALM      30.20R
MUSKEGON       CLOUDY    31  20  63 N3        30.23R
$$
MIZ016>042-290500-
NORTHERN LOWER MICHIGAN

CITY           SKY/WX    TMP DP  RH WIND       PRES   REMARKS
ALPENA         CLOUDY    23  14  68 NW9       30.17R
BEAVER ISLAND  PTCLDY    19  11  68 NW9G17    30.21S
BELLAIRE       CLOUDY    24  14  66 NW6G17    30.21R
CADILLAC       CLOUDY    23  18  81 NW3       30.15R
CHARLEVOIX     MOCLDY    22  11  64 NW15G21   30.23S
FRANKFORT      LGT SNOW  24  19  80 N9G16     30.22R
GAYLORD        FLURRIES  19  13  77 NW7       30.14R
GRAYLING       LGT SNOW  23  18  80 NW9       30.16R
HARBOR SPRINGS MOCLDY    21   9  60 W9        30.19S
HOUGHTON LAKE  FLURRIES  23  15  71 NW10      30.16R
MANISTEE       CLOUDY    27  12  54 NW13      30.22R
OSCODA         CLOUDY    27  16  62 W9        30.16R
PELLSTON       CLOUDY    21  11  65 NW14      30.20R
TRAVERSE CITY  FLURRIES  24  17  74 N13       30.20R
$$
MIZ007>008-015-290500-
EASTERN UPPER MICHIGAN

CITY           SKY/WX    TMP DP  RH WIND       PRES   REMARKS
KINROSS        MOCLDY    16  14  93 W10       30.16R
MACKINAC ISLAN PTCLDY    19  11  70 W12G17    30.18R
NEWBERRY       CLOUDY    13  12  93 SW8       30.16F
S. S. MARIE    LGT SNOW  19  15  84 W14G20    30.11F FOG
$$
MIZ004>006-011>014-085-290500-
CENTRAL UPPER MICHIGAN

CITY           SKY/WX    TMP DP  RH WIND       PRES   REMARKS
MANISTIQUE     PTCLDY    11   6  83 W9        30.22S
ESCANABA       CLEAR      9   5  85 W5        30.25R
MENOMINEE      CLEAR     14   5  67 N6        30.27R
SAWYER-GWINN   CLEAR      3   0  85 NW3       30.19S
$$
MIZ001>003-009>011-084-290500-
WESTERN UPPER MICHIGAN

CITY           SKY/WX    TMP DP  RH WIND       PRES   REMARKS
IRON MOUNTAIN    N/A      1  -2  87 CALM      30.20S
HOUGHTON       LGT SNOW  12   7  80 NW15      30.21R WCI  -4
COPPER HARBOR    N/A     18  10  71 N18G28    30.22R
IRONWOOD       CLOUDY     9   5  85 W8        30.23S
$$

ABBREVIATIONS USED IN REMARKS
   TC - TEMPERATURE IN CELSIUS
  WCI - WIND CHILL INDEX
   HX - HEAT INDEX
  VSB - VISIBILITY




USA.gov is the U.S. government's official web portal to all federal, state and local government web resources and services.